When you browse on this site, cookies collect data to enhance your experience and personalize the content and advertising you see.
Visit our Privacy Policy to learn more. By continuing to use the site, you agree to this use of cookies and data.
EN

Hourly Weather Kopaszyn

Today, 4 August, Tuesday

Time Temperature Precipitation Wind Pressure Humidity
00:00 +16°C° 0 mm 3 mps 748 mmHg 94%
01:00 +15°C° 0 mm 4 mps 748 mmHg 94%
02:00 +16°C° 0 mm 3 mps 748 mmHg 93%
03:00 +14°C° 0 mm 3 mps 748 mmHg 92%
04:00 +14°C° 0 mm 3 mps 748 mmHg 91%
05:00 +14°C° 0 mm 3 mps 748 mmHg 88%
06:00 +15°C° 0 mm 4 mps 748 mmHg 85%
07:00 +15°C° 0 mm 4 mps 748 mmHg 82%
08:00 +17°C° 0.1 mm 4 mps 748 mmHg 78%
09:00 +18°C° 0.1 mm 4 mps 749 mmHg 74%
10:00 +19°C° 0.1 mm 4 mps 749 mmHg 70%
11:00 +20°C° 0 mm 4 mps 749 mmHg 66%
12:00 +21°C° 0 mm 4 mps 749 mmHg 62%
13:00 +22°C° 0 mm 4 mps 749 mmHg 59%
14:00 +22°C° 0 mm 4 mps 750 mmHg 57%
15:00 +22°C° 0 mm 4 mps 750 mmHg 56%
16:00 +22°C° 0 mm 5 mps 751 mmHg 54%
17:00 +21°C° 0 mm 4 mps 751 mmHg 58%
18:00 +19°C° 0 mm 4 mps 751 mmHg 61%
19:00 +18°C° 0 mm 4 mps 752 mmHg 65%
20:00 +16°C° 0 mm 3 mps 752 mmHg 68%
21:00 +14°C° 0 mm 3 mps 753 mmHg 71%
22:00 +13°C° 0 mm 3 mps 753 mmHg 75%
23:00 +13°C° 0 mm 2 mps 753 mmHg 78%

Tomorrow, 5 August, Wednesday

Time Temperature Precipitation Wind Pressure Humidity
00:00 +13°C° 0 mm 2 mps 754 mmHg 80%
01:00 +12°C° 0 mm 2 mps 754 mmHg 83%
02:00 +12°C° 0 mm 1 mps 754 mmHg 84%
03:00 +12°C° 0 mm 1 mps 754 mmHg 84%
04:00 +10°C° 0 mm 0 mps 755 mmHg 85%
05:00 +12°C° 0 mm 0 mps 755 mmHg 79%
06:00 +13°C° 0 mm 0 mps 755 mmHg 73%
07:00 +15°C° 0 mm 0 mps 755 mmHg 67%
08:00 +17°C° 0 mm 0 mps 756 mmHg 61%
09:00 +19°C° 0 mm 0 mps 756 mmHg 55%
10:00 +20°C° 0 mm 0 mps 756 mmHg 48%
11:00 +21°C° 0 mm 0 mps 756 mmHg 47%
12:00 +22°C° 0 mm 0 mps 756 mmHg 46%
13:00 +25°C° 0 mm 1 mps 756 mmHg 45%
14:00 +25°C° 0 mm 1 mps 756 mmHg 45%
15:00 +25°C° 0 mm 1 mps 756 mmHg 44%
16:00 +25°C° 0 mm 1 mps 756 mmHg 43%
17:00 +24°C° 0 mm 1 mps 756 mmHg 48%
18:00 +22°C° 0 mm 1 mps 756 mmHg 53%
19:00 +21°C° 0 mm 1 mps 756 mmHg 58%
20:00 +20°C° 0 mm 1 mps 757 mmHg 60%
21:00 +19°C° 0 mm 1 mps 757 mmHg 62%
22:00 +18°C° 0 mm 1 mps 757 mmHg 64%
23:00 +18°C° 0 mm 1 mps 757 mmHg 66%

Day after tomorrow, 6 August, Thursday

Time Temperature Precipitation Wind Pressure Humidity
00:00 +16°C° 0 mm 1 mps 757 mmHg 68%
01:00 +16°C° 0 mm 1 mps 757 mmHg 70%
02:00 +16°C° 0 mm 1 mps 758 mmHg 72%
03:00 +15°C° 0 mm 1 mps 758 mmHg 73%
04:00 +15°C° 0 mm 1 mps 758 mmHg 75%
05:00 +16°C° 0 mm 1 mps 758 mmHg 73%
06:00 +17°C° 0 mm 2 mps 759 mmHg 71%
07:00 +19°C° 0 mm 2 mps 759 mmHg 68%
08:00 +20°C° 0 mm 2 mps 759 mmHg 63%
09:00 +22°C° 0 mm 3 mps 759 mmHg 58%
10:00 +25°C° 0 mm 3 mps 759 mmHg 53%
11:00 +25°C° 0 mm 3 mps 759 mmHg 50%
12:00 +26°C° 0 mm 3 mps 759 mmHg 46%
13:00 +27°C° 0 mm 3 mps 759 mmHg 43%
14:00 +27°C° 0 mm 3 mps 759 mmHg 43%
15:00 +27°C° 0 mm 3 mps 759 mmHg 42%
16:00 +27°C° 0 mm 3 mps 759 mmHg 42%
17:00 +26°C° 0 mm 3 mps 759 mmHg 48%
18:00 +24°C° 0 mm 3 mps 759 mmHg 54%
19:00 +23°C° 0 mm 2 mps 759 mmHg 60%
20:00 +21°C° 0 mm 2 mps 759 mmHg 62%
21:00 +19°C° 0 mm 2 mps 759 mmHg 64%
22:00 +18°C° 0 mm 3 mps 760 mmHg 66%
23:00 +18°C° 0 mm 3 mps 760 mmHg 69%

7 August, Friday

Time Temperature Precipitation Wind Pressure Humidity
00:00 +18°C° 0 mm 2 mps 760 mmHg 73%
01:00 +17°C° 0 mm 2 mps 760 mmHg 76%
02:00 +17°C° 0 mm 3 mps 760 mmHg 78%
03:00 +17°C° 0 mm 3 mps 760 mmHg 79%
04:00 +16°C° 0 mm 3 mps 760 mmHg 81%
05:00 +18°C° 0 mm 3 mps 760 mmHg 78%
06:00 +19°C° 0 mm 3 mps 760 mmHg 75%
07:00 +20°C° 0 mm 4 mps 760 mmHg 73%
08:00 +22°C° 0 mm 4 mps 760 mmHg 69%
09:00 +23°C° 0 mm 4 mps 760 mmHg 64%
10:00 +26°C° 0 mm 4 mps 760 mmHg 60%
11:00 +27°C° 0 mm 4 mps 760 mmHg 57%
12:00 +28°C° 0 mm 4 mps 760 mmHg 54%
13:00 +29°C° 0 mm 3 mps 759 mmHg 52%
14:00 +29°C° 0 mm 3 mps 759 mmHg 51%
15:00 +29°C° 0 mm 3 mps 759 mmHg 51%
16:00 +29°C° 0 mm 3 mps 758 mmHg 51%
17:00 +28°C° 0 mm 3 mps 758 mmHg 57%
18:00 +26°C° 0 mm 3 mps 758 mmHg 62%
19:00 +25°C° 0 mm 3 mps 758 mmHg 67%
20:00 +24°C° 0 mm 3 mps 758 mmHg 70%
21:00 +22°C° 0 mm 3 mps 758 mmHg 73%
22:00 +21°C° 0 mm 3 mps 759 mmHg 75%
23:00 +20°C° 0 mm 3 mps 759 mmHg 76%

8 August, Saturday

Time Temperature Precipitation Wind Pressure Humidity
00:00 +20°C° 0 mm 3 mps 758 mmHg 78%
01:00 +19°C° 0 mm 3 mps 758 mmHg 79%
02:00 +19°C° 0 mm 3 mps 758 mmHg 79%
03:00 +18°C° 0 mm 3 mps 758 mmHg 79%
04:00 +18°C° 0 mm 3 mps 758 mmHg 79%
05:00 +19°C° 0 mm 3 mps 758 mmHg 77%
06:00 +20°C° 0 mm 3 mps 758 mmHg 75%
07:00 +21°C° 0 mm 3 mps 758 mmHg 74%
08:00 +24°C° 0 mm 3 mps 758 mmHg 68%
09:00 +25°C° 0 mm 3 mps 758 mmHg 63%
10:00 +27°C° 0 mm 3 mps 758 mmHg 58%
11:00 +28°C° 0 mm 3 mps 757 mmHg 55%
12:00 +28°C° 0 mm 3 mps 757 mmHg 52%
13:00 +29°C° 0 mm 3 mps 756 mmHg 49%
14:00 +29°C° 0 mm 2 mps 756 mmHg 48%
15:00 +29°C° 0 mm 2 mps 756 mmHg 47%
16:00 +29°C° 0 mm 2 mps 755 mmHg 47%
17:00 +28°C° 0 mm 2 mps 755 mmHg 51%
18:00 +27°C° 0 mm 2 mps 755 mmHg 55%
19:00 +25°C° 0 mm 1 mps 755 mmHg 59%
20:00 +24°C° 0 mm 2 mps 755 mmHg 62%
21:00 +23°C° 0 mm 2 mps 755 mmHg 65%
22:00 +21°C° 0 mm 3 mps 755 mmHg 68%
23:00 +21°C° 0 mm 2 mps 755 mmHg 72%

9 August, Sunday

Time Temperature Precipitation Wind Pressure Humidity
00:00 +20°C° 0 mm 2 mps 755 mmHg 77%
01:00 +19°C° 0 mm 2 mps 755 mmHg 81%
02:00 +19°C° 0 mm 2 mps 754 mmHg 83%
03:00 +19°C° 0 mm 2 mps 754 mmHg 84%
04:00 +18°C° 0 mm 2 mps 754 mmHg 86%
05:00 +19°C° 0 mm 2 mps 754 mmHg 82%
06:00 +20°C° 0 mm 2 mps 754 mmHg 79%
07:00 +21°C° 0 mm 2 mps 754 mmHg 76%
08:00 +24°C° 0 mm 2 mps 754 mmHg 69%
09:00 +25°C° 0 mm 2 mps 754 mmHg 62%
10:00 +27°C° 0 mm 2 mps 754 mmHg 56%
11:00 +28°C° 0 mm 2 mps 754 mmHg 52%
12:00 +28°C° 0 mm 2 mps 754 mmHg 48%
13:00 +29°C° 0 mm 2 mps 753 mmHg 44%
14:00 +29°C° 0 mm 2 mps 753 mmHg 43%
15:00 +29°C° 0 mm 2 mps 753 mmHg 43%
16:00 +30°C° 0 mm 2 mps 753 mmHg 43%
17:00 +28°C° 0 mm 2 mps 753 mmHg 48%
18:00 +27°C° 0 mm 2 mps 753 mmHg 53%
19:00 +26°C° 0 mm 2 mps 753 mmHg 58%
20:00 +24°C° 0 mm 2 mps 753 mmHg 63%
21:00 +23°C° 0 mm 2 mps 753 mmHg 67%
22:00 +21°C° 0 mm 3 mps 753 mmHg 71%
23:00 +20°C° 0 mm 2 mps 753 mmHg 75%
Show more